User: anonymous   Login
Location: Banios
(43.0451°N, 0.2335°E)
Time: 21:59:07
(UTC+00:00)
Language:

Cosmos 1072 Rocket - Orbit

View from above orbital plane
View from above orbital plane
View from above satellite
View from above satellite

Ground track
Ground track

The orbit data is extracted from the following two-line orbital elements,

1 11239U 79003B   21110.61085369 -.00000035  00000-0 -51680-4 0  9992
2 11239  82.9350 126.8497 0042189  73.2896  46.8881 13.75851999120589
Epoch (UTC): 20 April 2021 14:39:37
Eccentricity: 0.0042189
inclination: 82.9350°
perigee height: 947 km
apogee height: 1009 km
right ascension of ascending node: 126.8497°
argument of perigee: 73.2896°
revolutions per day: 13.75851999
mean anomaly at epoch: 46.8881°
orbit number at epoch: 12058

The dashed part of the orbit path shows where the satellite is in the earth's shadow,  

DLR